Time,TemperatureF,DewpointF,PressureIn,WindDirection,WindDirectionDegrees,WindSpeedMPH,WindSpeedGustMPH,Humidity,HourlyPrecipIn,Conditions,Clouds,dailyrainin,SoftwareType,DateUTC
2013-11-18 00:00:00,45.9,32.7,29.41,North,-999,-999.0,-999.0,60,0.00,,,0.00,WSDL version 443,2013-11-18 05:00:00,
2013-11-18 00:05:00,45.9,32.8,29.41,North,-999,-999.0,-999.0,60,0.00,,,0.00,WSDL version 443,2013-11-18 05:05:00,
2013-11-18 00:10:00,45.9,32.8,29.41,North,-999,-999.0,-999.0,60,0.00,,,0.00,WSDL version 443,2013-11-18 05:10:00,
2013-11-18 00:15:00,46.0,32.2,29.41,North,-999,-999.0,-999.0,58,0.00,,,0.00,WSDL version 443,2013-11-18 05:15:00,
2013-11-18 00:20:00,46.0,31.9,29.41,North,-999,-999.0,-999.0,58,0.00,,,0.00,WSDL version 443,2013-11-18 05:20:00,
2013-11-18 00:25:00,46.0,31.7,29.41,North,-999,-999.0,-999.0,57,0.00,,,0.00,WSDL version 443,2013-11-18 05:25:00,
2013-11-18 00:30:00,45.9,30.8,29.41,North,-999,-999.0,-999.0,55,0.00,,,0.00,WSDL version 443,2013-11-18 05:30:00,
2013-11-18 00:35:00,46.0,30.4,29.44,North,-999,-999.0,-999.0,54,0.00,,,0.00,WSDL version 443,2013-11-18 05:35:00,
2013-11-18 00:40:00,45.9,30.4,29.44,North,-999,-999.0,-999.0,55,0.00,,,0.00,WSDL version 443,2013-11-18 05:40:00,
2013-11-18 00:45:00,45.9,29.5,29.44,North,-999,-999.0,-999.0,53,0.00,,,0.00,WSDL version 443,2013-11-18 05:45:00,
2013-11-18 00:50:00,45.9,28.9,29.47,North,-999,-999.0,-999.0,51,0.00,,,0.00,WSDL version 443,2013-11-18 05:50:00,
2013-11-18 00:55:00,45.9,28.4,29.47,North,-999,-999.0,-999.0,50,0.00,,,0.00,WSDL version 443,2013-11-18 05:55:00,
2013-11-18 01:00:00,45.9,28.2,29.47,North,-999,-999.0,-999.0,50,0.00,,,0.00,WSDL version 443,2013-11-18 06:00:00,
2013-11-18 01:05:00,45.7,27.7,29.50,North,-999,-999.0,-999.0,49,0.00,,,0.00,WSDL version 443,2013-11-18 06:05:00,
2013-11-18 01:10:00,45.5,27.5,29.50,North,-999,-999.0,-999.0,49,0.00,,,0.00,WSDL version 443,2013-11-18 06:10:00,
2013-11-18 01:15:00,45.4,27.7,29.50,North,-999,-999.0,-999.0,50,0.00,,,0.00,WSDL version 443,2013-11-18 06:15:00,
2013-11-18 01:20:00,45.3,26.7,29.50,North,-999,-999.0,-999.0,48,0.00,,,0.00,WSDL version 443,2013-11-18 06:20:00,
2013-11-18 01:25:00,45.4,26.5,29.50,North,-999,-999.0,-999.0,47,0.00,,,0.00,WSDL version 443,2013-11-18 06:25:00,
2013-11-18 01:30:00,45.4,26.3,29.50,North,-999,-999.0,-999.0,47,0.00,,,0.00,WSDL version 443,2013-11-18 06:30:00,
2013-11-18 01:35:00,45.3,26.3,29.53,North,-999,-999.0,-999.0,47,0.00,,,0.00,WSDL version 443,2013-11-18 06:35:00,
2013-11-18 01:40:00,45.1,26.6,29.53,North,-999,-999.0,-999.0,48,0.00,,,0.00,WSDL version 443,2013-11-18 06:40:00,
2013-11-18 01:45:00,45.1,26.6,29.53,North,-999,-999.0,-999.0,48,0.00,,,0.00,WSDL version 443,2013-11-18 06:45:00,
2013-11-18 01:50:00,45.0,26.6,29.56,North,-999,-999.0,-999.0,48,0.00,,,0.00,WSDL version 443,2013-11-18 06:50:00,
2013-11-18 01:55:00,45.0,26.0,29.56,North,-999,-999.0,-999.0,47,0.00,,,0.00,WSDL version 443,2013-11-18 06:55:00,
2013-11-18 02:00:00,45.0,25.4,29.56,North,-999,-999.0,-999.0,46,0.00,,,0.00,WSDL version 443,2013-11-18 07:00:00,
2013-11-18 02:05:00,45.1,24.2,29.56,North,-999,-999.0,-999.0,43,0.00,,,0.00,WSDL version 443,2013-11-18 07:05:00,
2013-11-18 02:10:00,45.1,23.4,29.56,North,-999,-999.0,-999.0,42,0.00,,,0.00,WSDL version 443,2013-11-18 07:10:00,
2013-11-18 02:15:00,44.9,23.6,29.56,North,-999,-999.0,-999.0,43,0.00,,,0.00,WSDL version 443,2013-11-18 07:15:00,
2013-11-18 02:20:00,44.8,23.9,29.56,North,-999,-999.0,-999.0,43,0.00,,,0.00,WSDL version 443,2013-11-18 07:20:00,
2013-11-18 02:25:00,44.8,23.9,29.56,North,-999,-999.0,-999.0,44,0.00,,,0.00,WSDL version 443,2013-11-18 07:25:00,
2013-11-18 02:30:00,44.8,24.2,29.56,North,-999,-999.0,-999.0,44,0.00,,,0.00,WSDL version 443,2013-11-18 07:30:00,
2013-11-18 02:35:00,44.8,24.5,29.56,North,-999,-999.0,-999.0,45,0.00,,,0.00,WSDL version 443,2013-11-18 07:35:00,
2013-11-18 02:40:00,44.7,24.5,29.56,North,-999,-999.0,-999.0,45,0.00,,,0.00,WSDL version 443,2013-11-18 07:40:00,
2013-11-18 02:45:00,44.6,24.0,29.56,North,-999,-999.0,-999.0,44,0.00,,,0.00,WSDL version 443,2013-11-18 07:45:00,
2013-11-18 02:50:00,44.8,23.4,29.59,North,-999,-999.0,-999.0,43,0.00,,,0.00,WSDL version 443,2013-11-18 07:50:00,
2013-11-18 02:55:00,44.8,23.3,29.59,North,-999,-999.0,-999.0,42,0.00,,,0.00,WSDL version 443,2013-11-18 07:55:00,
2013-11-18 03:00:00,44.8,23.1,29.59,North,-999,-999.0,-999.0,42,0.00,,,0.00,WSDL version 443,2013-11-18 08:00:00,
2013-11-18 03:05:00,44.7,22.8,29.59,North,-999,-999.0,-999.0,42,0.00,,,0.00,WSDL version 443,2013-11-18 08:05:00,
2013-11-18 03:10:00,44.6,21.9,29.59,North,-999,-999.0,-999.0,40,0.00,,,0.00,WSDL version 443,2013-11-18 08:10:00,
2013-11-18 03:15:00,44.6,21.8,29.59,North,-999,-999.0,-999.0,40,0.00,,,0.00,WSDL version 443,2013-11-18 08:15:00,
2013-11-18 03:20:00,44.5,21.9,29.62,North,-999,-999.0,-999.0,40,0.00,,,0.00,WSDL version 443,2013-11-18 08:20:00,
2013-11-18 03:25:00,44.3,22.7,29.62,North,-999,-999.0,-999.0,42,0.00,,,0.00,WSDL version 443,2013-11-18 08:25:00,
2013-11-18 03:30:00,44.2,22.7,29.62,North,-999,-999.0,-999.0,42,0.00,,,0.00,WSDL version 443,2013-11-18 08:30:00,
2013-11-18 03:35:00,44.2,22.9,29.62,North,-999,-999.0,-999.0,43,0.00,,,0.00,WSDL version 443,2013-11-18 08:35:00,
2013-11-18 03:40:00,44.2,22.8,29.62,North,-999,-999.0,-999.0,42,0.00,,,0.00,WSDL version 443,2013-11-18 08:40:00,
2013-11-18 03:45:00,44.1,22.6,29.62,North,-999,-999.0,-999.0,42,0.00,,,0.00,WSDL version 443,2013-11-18 08:45:00,
2013-11-18 03:50:00,44.1,22.2,29.62,North,-999,-999.0,-999.0,42,0.00,,,0.00,WSDL version 443,2013-11-18 08:50:00,
2013-11-18 03:55:00,44.1,21.9,29.62,North,-999,-999.0,-999.0,41,0.00,,,0.00,WSDL version 443,2013-11-18 08:55:00,
2013-11-18 04:00:00,43.9,22.4,29.62,North,-999,-999.0,-999.0,42,0.00,,,0.00,WSDL version 443,2013-11-18 09:00:00,
2013-11-18 04:05:00,43.8,22.8,29.62,North,-999,-999.0,-999.0,43,0.00,,,0.00,WSDL version 443,2013-11-18 09:05:00,
2013-11-18 04:10:00,43.9,22.7,29.62,North,-999,-999.0,-999.0,43,0.00,,,0.00,WSDL version 443,2013-11-18 09:10:00,
2013-11-18 04:15:00,43.9,22.7,29.62,North,-999,-999.0,-999.0,43,0.00,,,0.00,WSDL version 443,2013-11-18 09:15:00,
2013-11-18 04:20:00,43.9,22.6,29.62,North,-999,-999.0,-999.0,43,0.00,,,0.00,WSDL version 443,2013-11-18 09:20:00,
2013-11-18 04:25:00,43.7,22.3,29.62,North,-999,-999.0,-999.0,42,0.00,,,0.00,WSDL version 443,2013-11-18 09:25:00,
2013-11-18 04:30:00,43.7,21.3,29.62,North,-999,-999.0,-999.0,41,0.00,,,0.00,WSDL version 443,2013-11-18 09:30:00,
2013-11-18 04:35:00,43.7,20.8,29.65,North,-999,-999.0,-999.0,40,0.00,,,0.00,WSDL version 443,2013-11-18 09:35:00,
2013-11-18 04:45:00,43.3,20.8,29.65,North,-999,-999.0,-999.0,40,0.00,,,0.00,WSDL version 443,2013-11-18 09:45:00,
2013-11-18 04:50:00,43.3,20.8,29.65,North,-999,-999.0,-999.0,40,0.00,,,0.00,WSDL version 443,2013-11-18 09:50:00,
2013-11-18 04:55:00,43.3,21.4,29.65,North,-999,-999.0,-999.0,41,0.00,,,0.00,WSDL version 443,2013-11-18 09:55:00,
2013-11-18 05:00:00,43.3,22.1,29.65,North,-999,-999.0,-999.0,43,0.00,,,0.00,WSDL version 443,2013-11-18 10:00:00,
2013-11-18 05:05:00,43.3,23.0,29.65,North,-999,-999.0,-999.0,44,0.00,,,0.00,WSDL version 443,2013-11-18 10:05:00,
2013-11-18 05:10:00,43.4,23.7,29.65,North,-999,-999.0,-999.0,45,0.00,,,0.00,WSDL version 443,2013-11-18 10:10:00,
2013-11-18 05:15:00,43.3,23.6,29.65,North,-999,-999.0,-999.0,45,0.00,,,0.00,WSDL version 443,2013-11-18 10:15:00,
2013-11-18 05:20:00,43.3,23.7,29.65,North,-999,-999.0,-999.0,46,0.00,,,0.00,WSDL version 443,2013-11-18 10:20:00,
2013-11-18 05:25:00,43.2,23.4,29.65,North,-999,-999.0,-999.0,45,0.00,,,0.00,WSDL version 443,2013-11-18 10:25:00,
2013-11-18 05:30:00,43.0,23.5,29.65,North,-999,-999.0,-999.0,46,0.00,,,0.00,WSDL version 443,2013-11-18 10:30:00,
2013-11-18 05:35:00,42.9,23.9,29.65,North,-999,-999.0,-999.0,47,0.00,,,0.00,WSDL version 443,2013-11-18 10:35:00,
2013-11-18 05:40:00,42.8,23.2,29.65,North,-999,-999.0,-999.0,46,0.00,,,0.00,WSDL version 443,2013-11-18 10:40:00,
2013-11-18 05:45:00,42.8,22.8,29.65,North,-999,-999.0,-999.0,45,0.00,,,0.00,WSDL version 443,2013-11-18 10:45:00,
2013-11-18 05:50:00,42.9,22.4,29.65,North,-999,-999.0,-999.0,44,0.00,,,0.00,WSDL version 443,2013-11-18 10:50:00,
2013-11-18 05:55:00,43.0,21.9,29.65,North,-999,-999.0,-999.0,43,0.00,,,0.00,WSDL version 443,2013-11-18 10:55:00,
2013-11-18 06:00:00,43.0,21.4,29.65,North,-999,-999.0,-999.0,42,0.00,,,0.00,WSDL version 443,2013-11-18 11:00:00,
2013-11-18 06:05:00,42.9,21.3,29.65,North,-999,-999.0,-999.0,42,0.00,,,0.00,WSDL version 443,2013-11-18 11:05:00,
2013-11-18 06:10:00,42.8,20.8,29.65,North,-999,-999.0,-999.0,41,0.00,,,0.00,WSDL version 443,2013-11-18 11:10:00,
2013-11-18 06:15:00,42.8,20.5,29.65,North,-999,-999.0,-999.0,41,0.00,,,0.00,WSDL version 443,2013-11-18 11:15:00,
2013-11-18 06:20:00,42.6,20.8,29.65,North,-999,-999.0,-999.0,41,0.00,,,0.00,WSDL version 443,2013-11-18 11:20:00,
2013-11-18 06:25:00,42.4,20.8,29.65,North,-999,-999.0,-999.0,42,0.00,,,0.00,WSDL version 443,2013-11-18 11:25:00,
2013-11-18 06:30:00,42.3,20.8,29.65,North,-999,-999.0,-999.0,42,0.00,,,0.00,WSDL version 443,2013-11-18 11:30:00,
2013-11-18 06:35:00,42.1,20.8,29.65,North,-999,-999.0,-999.0,42,0.00,,,0.00,WSDL version 443,2013-11-18 11:35:00,
2013-11-18 06:40:00,42.1,20.7,29.65,North,-999,-999.0,-999.0,42,0.00,,,0.00,WSDL version 443,2013-11-18 11:40:00,
2013-11-18 06:45:00,42.1,20.3,29.65,North,-999,-999.0,-999.0,41,0.00,,,0.00,WSDL version 443,2013-11-18 11:45:00,
2013-11-18 06:50:00,42.1,20.2,29.68,North,-999,-999.0,-999.0,41,0.00,,,0.00,WSDL version 443,2013-11-18 11:50:00,
2013-11-18 06:55:00,42.0,20.1,29.68,North,-999,-999.0,-999.0,41,0.00,,,0.00,WSDL version 443,2013-11-18 11:55:00,
2013-11-18 07:00:00,41.8,19.8,29.68,North,-999,-999.0,-999.0,41,0.00,,,0.00,WSDL version 443,2013-11-18 12:00:00,
2013-11-18 07:05:00,41.7,19.7,29.68,North,-999,-999.0,-999.0,41,0.00,,,0.00,WSDL version 443,2013-11-18 12:05:00,
2013-11-18 07:10:00,41.6,19.6,29.68,North,-999,-999.0,-999.0,41,0.00,,,0.00,WSDL version 443,2013-11-18 12:10:00,
2013-11-18 07:15:00,41.5,19.7,29.68,North,-999,-999.0,-999.0,41,0.00,,,0.00,WSDL version 443,2013-11-18 12:15:00,
2013-11-18 07:20:00,41.5,19.9,29.68,North,-999,-999.0,-999.0,42,0.00,,,0.00,WSDL version 443,2013-11-18 12:20:00,
2013-11-18 07:25:00,41.4,19.9,29.68,North,-999,-999.0,-999.0,42,0.00,,,0.00,WSDL version 443,2013-11-18 12:25:00,
2013-11-18 07:30:00,41.5,20.1,29.68,North,-999,-999.0,-999.0,42,0.00,,,0.00,WSDL version 443,2013-11-18 12:30:00,
2013-11-18 07:35:00,41.5,20.2,29.68,North,-999,-999.0,-999.0,42,0.00,,,0.00,WSDL version 443,2013-11-18 12:35:00,
2013-11-18 07:40:00,41.5,20.7,29.68,North,-999,-999.0,-999.0,43,0.00,,,0.00,WSDL version 443,2013-11-18 12:40:00,
2013-11-18 07:45:00,41.5,20.4,29.68,North,-999,-999.0,-999.0,42,0.00,,,0.00,WSDL version 443,2013-11-18 12:45:00,
2013-11-18 07:50:00,41.5,20.7,29.68,North,-999,-999.0,-999.0,43,0.00,,,0.00,WSDL version 443,2013-11-18 12:50:00,
2013-11-18 07:55:00,41.5,20.8,29.68,North,-999,-999.0,-999.0,43,0.00,,,0.00,WSDL version 443,2013-11-18 12:55:00,
2013-11-18 08:00:00,41.5,21.3,29.68,North,-999,-999.0,-999.0,44,0.00,,,0.00,WSDL version 443,2013-11-18 13:00:00,
2013-11-18 08:05:00,41.5,21.3,29.68,North,-999,-999.0,-999.0,44,0.00,,,0.00,WSDL version 443,2013-11-18 13:05:00,
2013-11-18 08:10:00,41.5,21.6,29.68,North,-999,-999.0,-999.0,45,0.00,,,0.00,WSDL version 443,2013-11-18 13:10:00,
2013-11-18 08:15:00,41.6,22.2,29.68,North,-999,-999.0,-999.0,46,0.00,,,0.00,WSDL version 443,2013-11-18 13:15:00,
2013-11-18 08:20:00,41.5,22.5,29.68,North,-999,-999.0,-999.0,46,0.00,,,0.00,WSDL version 443,2013-11-18 13:20:00,
2013-11-18 08:25:00,41.5,23.0,29.68,North,-999,-999.0,-999.0,47,0.00,,,0.00,WSDL version 443,2013-11-18 13:25:00,
2013-11-18 08:30:00,41.5,23.1,29.68,North,-999,-999.0,-999.0,48,0.00,,,0.00,WSDL version 443,2013-11-18 13:30:00,
2013-11-18 08:35:00,41.2,21.7,29.71,North,-999,-999.0,-999.0,45,0.00,,,0.00,WSDL version 443,2013-11-18 13:35:00,
2013-11-18 08:40:00,41.2,21.5,29.71,North,-999,-999.0,-999.0,45,0.00,,,0.00,WSDL version 443,2013-11-18 13:40:00,
2013-11-18 08:45:00,41.1,21.1,29.71,North,-999,-999.0,-999.0,44,0.00,,,0.00,WSDL version 443,2013-11-18 13:45:00,
2013-11-18 08:50:00,41.2,20.5,29.74,North,-999,-999.0,-999.0,43,0.00,,,0.00,WSDL version 443,2013-11-18 13:50:00,
2013-11-18 08:55:00,41.2,20.4,29.74,North,-999,-999.0,-999.0,43,0.00,,,0.00,WSDL version 443,2013-11-18 13:55:00,
2013-11-18 09:00:00,41.4,20.8,29.74,North,-999,-999.0,-999.0,43,0.00,,,0.00,WSDL version 443,2013-11-18 14:00:00,
2013-11-18 09:05:00,41.4,19.8,29.74,North,-999,-999.0,-999.0,42,0.00,,,0.00,WSDL version 443,2013-11-18 14:05:00,
2013-11-18 09:10:00,41.2,19.6,29.74,North,-999,-999.0,-999.0,42,0.00,,,0.00,WSDL version 443,2013-11-18 14:10:00,
2013-11-18 09:15:00,41.0,19.2,29.74,North,-999,-999.0,-999.0,41,0.00,,,0.00,WSDL version 443,2013-11-18 14:15:00,
2013-11-18 09:20:00,41.0,19.3,29.74,North,-999,-999.0,-999.0,41,0.00,,,0.00,WSDL version 443,2013-11-18 14:20:00,
2013-11-18 09:25:00,40.9,19.5,29.74,North,-999,-999.0,-999.0,42,0.00,,,0.00,WSDL version 443,2013-11-18 14:25:00,
2013-11-18 09:30:00,40.7,19.4,29.74,North,-999,-999.0,-999.0,42,0.00,,,0.00,WSDL version 443,2013-11-18 14:30:00,
2013-11-18 09:35:00,40.6,19.4,29.74,North,-999,-999.0,-999.0,42,0.00,,,0.00,WSDL version 443,2013-11-18 14:35:00,
2013-11-18 09:40:00,40.6,19.5,29.74,North,-999,-999.0,-999.0,43,0.00,,,0.00,WSDL version 443,2013-11-18 14:40:00,
2013-11-18 09:45:00,40.5,19.7,29.74,North,-999,-999.0,-999.0,43,0.00,,,0.00,WSDL version 443,2013-11-18 14:45:00,
2013-11-18 09:50:00,40.3,19.8,29.74,North,-999,-999.0,-999.0,43,0.00,,,0.00,WSDL version 443,2013-11-18 14:50:00,
2013-11-18 09:55:00,40.3,19.9,29.74,North,-999,-999.0,-999.0,44,0.00,,,0.00,WSDL version 443,2013-11-18 14:55:00,
2013-11-18 10:00:00,40.4,19.4,29.74,North,-999,-999.0,-999.0,43,0.00,,,0.00,WSDL version 443,2013-11-18 15:00:00,
2013-11-18 10:05:00,40.3,19.0,29.74,North,-999,-999.0,-999.0,42,0.00,,,0.00,WSDL version 443,2013-11-18 15:05:00,
2013-11-18 10:10:00,40.2,19.0,29.74,North,-999,-999.0,-999.0,42,0.00,,,0.00,WSDL version 443,2013-11-18 15:10:00,
2013-11-18 10:15:00,40.1,18.8,29.74,North,-999,-999.0,-999.0,42,0.00,,,0.00,WSDL version 443,2013-11-18 15:15:00,
2013-11-18 10:20:00,40.0,18.8,29.77,North,-999,-999.0,-999.0,42,0.00,,,0.00,WSDL version 443,2013-11-18 15:20:00,
2013-11-18 10:25:00,39.9,18.5,29.77,North,-999,-999.0,-999.0,42,0.00,,,0.00,WSDL version 443,2013-11-18 15:25:00,
2013-11-18 10:30:00,39.7,18.2,29.77,North,-999,-999.0,-999.0,41,0.00,,,0.00,WSDL version 443,2013-11-18 15:30:00,
2013-11-18 10:35:00,39.6,18.1,29.77,North,-999,-999.0,-999.0,42,0.00,,,0.00,WSDL version 443,2013-11-18 15:35:00,
2013-11-18 10:40:00,39.4,17.9,29.77,North,-999,-999.0,-999.0,42,0.00,,,0.00,WSDL version 443,2013-11-18 15:40:00,
2013-11-18 10:45:00,39.1,18.3,29.77,North,-999,-999.0,-999.0,43,0.00,,,0.00,WSDL version 443,2013-11-18 15:45:00,
2013-11-18 10:50:00,38.8,18.1,29.77,North,-999,-999.0,-999.0,43,0.00,,,0.00,WSDL version 443,2013-11-18 15:50:00,
2013-11-18 10:55:00,38.6,18.0,29.77,North,-999,-999.0,-999.0,43,0.00,,,0.00,WSDL version 443,2013-11-18 15:55:00,
2013-11-18 11:00:00,38.4,18.1,29.77,North,-999,-999.0,-999.0,43,0.00,,,0.00,WSDL version 443,2013-11-18 16:00:00,
2013-11-18 11:05:00,38.2,17.7,29.80,North,-999,-999.0,-999.0,43,0.00,,,0.00,WSDL version 443,2013-11-18 16:05:00,
2013-11-18 11:10:00,38.1,17.7,29.80,North,-999,-999.0,-999.0,43,0.00,,,0.00,WSDL version 443,2013-11-18 16:10:00,
2013-11-18 11:15:00,38.1,17.6,29.80,North,-999,-999.0,-999.0,43,0.00,,,0.00,WSDL version 443,2013-11-18 16:15:00,
2013-11-18 11:20:00,38.1,17.6,29.80,North,-999,-999.0,-999.0,43,0.00,,,0.00,WSDL version 443,2013-11-18 16:20:00,
2013-11-18 11:25:00,38.1,17.9,29.80,North,-999,-999.0,-999.0,44,0.00,,,0.00,WSDL version 443,2013-11-18 16:25:00,
2013-11-18 11:30:00,38.2,17.6,29.80,North,-999,-999.0,-999.0,43,0.00,,,0.00,WSDL version 443,2013-11-18 16:30:00,
2013-11-18 11:35:00,38.5,17.5,29.77,North,-999,-999.0,-999.0,42,0.00,,,0.00,WSDL version 443,2013-11-18 16:35:00,
2013-11-18 11:40:00,38.6,17.9,29.77,North,-999,-999.0,-999.0,43,0.00,,,0.00,WSDL version 443,2013-11-18 16:40:00,
2013-11-18 11:45:00,38.6,17.6,29.77,North,-999,-999.0,-999.0,42,0.00,,,0.00,WSDL version 443,2013-11-18 16:45:00,
2013-11-18 11:50:00,38.5,17.3,29.80,North,-999,-999.0,-999.0,42,0.00,,,0.00,WSDL version 443,2013-11-18 16:50:00,
2013-11-18 11:55:00,38.5,17.4,29.80,North,-999,-999.0,-999.0,42,0.00,,,0.00,WSDL version 443,2013-11-18 16:55:00,
2013-11-18 12:00:00,38.5,17.4,29.80,North,-999,-999.0,-999.0,42,0.00,,,0.00,WSDL version 443,2013-11-18 17:00:00,
2013-11-18 12:05:00,38.5,17.4,29.80,North,-999,-999.0,-999.0,42,0.00,,,0.00,WSDL version 443,2013-11-18 17:05:00,
2013-11-18 12:10:00,38.4,16.7,29.80,North,-999,-999.0,-999.0,41,0.00,,,0.00,WSDL version 443,2013-11-18 17:10:00,
2013-11-18 12:15:00,38.2,16.8,29.80,North,-999,-999.0,-999.0,41,0.00,,,0.00,WSDL version 443,2013-11-18 17:15:00,
2013-11-18 12:20:00,38.1,17.5,29.83,North,-999,-999.0,-999.0,43,0.00,,,0.00,WSDL version 443,2013-11-18 17:20:00,
2013-11-18 12:25:00,37.7,17.0,29.83,North,-999,-999.0,-999.0,43,0.00,,,0.00,WSDL version 443,2013-11-18 17:25:00,
2013-11-18 12:30:00,37.3,16.7,29.83,North,-999,-999.0,-999.0,43,0.00,,,0.00,WSDL version 443,2013-11-18 17:30:00,
2013-11-18 12:35:00,37.1,17.1,29.83,North,-999,-999.0,-999.0,44,0.00,,,0.00,WSDL version 443,2013-11-18 17:35:00,
2013-11-18 12:40:00,37.0,16.9,29.83,North,-999,-999.0,-999.0,44,0.00,,,0.00,WSDL version 443,2013-11-18 17:40:00,
2013-11-18 12:45:00,37.0,16.9,29.83,North,-999,-999.0,-999.0,44,0.00,,,0.00,WSDL version 443,2013-11-18 17:45:00,
2013-11-18 12:50:00,36.9,16.9,29.85,North,-999,-999.0,-999.0,44,0.00,,,0.00,WSDL version 443,2013-11-18 17:50:00,
2013-11-18 12:55:00,36.8,16.8,29.85,North,-999,-999.0,-999.0,44,0.00,,,0.00,WSDL version 443,2013-11-18 17:55:00,
2013-11-18 13:00:00,36.7,16.6,29.85,North,-999,-999.0,-999.0,44,0.00,,,0.00,WSDL version 443,2013-11-18 18:00:00,
2013-11-18 13:05:00,36.7,16.9,29.88,North,-999,-999.0,-999.0,44,0.00,,,0.00,WSDL version 443,2013-11-18 18:05:00,
2013-11-18 13:10:00,36.6,16.9,29.88,North,-999,-999.0,-999.0,44,0.00,,,0.00,WSDL version 443,2013-11-18 18:10:00,
2013-11-18 13:15:00,36.6,16.1,29.88,North,-999,-999.0,-999.0,43,0.00,,,0.00,WSDL version 443,2013-11-18 18:15:00,
2013-11-18 13:20:00,36.7,15.5,29.85,North,-999,-999.0,-999.0,42,0.00,,,0.00,WSDL version 443,2013-11-18 18:20:00,
2013-11-18 13:25:00,36.7,15.2,29.85,North,-999,-999.0,-999.0,41,0.00,,,0.00,WSDL version 443,2013-11-18 18:25:00,
2013-11-18 13:30:00,36.7,15.2,29.85,North,-999,-999.0,-999.0,41,0.00,,,0.00,WSDL version 443,2013-11-18 18:30:00,
2013-11-18 13:35:00,36.7,15.1,29.85,North,-999,-999.0,-999.0,41,0.00,,,0.00,WSDL version 443,2013-11-18 18:35:00,
2013-11-18 13:40:00,36.7,15.2,29.85,North,-999,-999.0,-999.0,41,0.00,,,0.00,WSDL version 443,2013-11-18 18:40:00,
2013-11-18 13:45:00,36.7,15.0,29.85,North,-999,-999.0,-999.0,41,0.00,,,0.00,WSDL version 443,2013-11-18 18:45:00,
2013-11-18 13:50:00,36.7,15.2,29.85,North,-999,-999.0,-999.0,41,0.00,,,0.00,WSDL version 443,2013-11-18 18:50:00,
2013-11-18 13:55:00,36.5,15.0,29.85,North,-999,-999.0,-999.0,41,0.00,,,0.00,WSDL version 443,2013-11-18 18:55:00,
2013-11-18 14:02:00,36.6,15.7,29.85,North,-999,-999.0,-999.0,42,0.00,,,0.00,WSDL version 443,2013-11-18 19:02:00,
2013-11-18 14:07:00,36.5,15.6,29.85,NNW,338,6.1,8.1,42,0.00,,,0.00,WSDL version 443,2013-11-18 19:07:00,
2013-11-18 14:12:00,36.3,15.1,29.85,WNW,289,6.0,9.6,41,0.00,,,0.00,WSDL version 443,2013-11-18 19:12:00,
2013-11-18 14:17:00,36.3,15.0,29.85,NNW,338,4.3,9.6,41,0.00,,,0.00,WSDL version 443,2013-11-18 19:17:00,
2013-11-18 14:22:00,36.3,14.9,29.88,West,270,6.0,9.2,41,0.00,,,0.00,WSDL version 443,2013-11-18 19:22:00,
2013-11-18 14:27:00,36.1,15.2,29.88,West,270,6.5,9.2,42,0.00,,,0.00,WSDL version 443,2013-11-18 19:27:00,
2013-11-18 14:37:00,36.0,15.1,29.88,West,278,6.4,6.4,42,0.00,,,0.00,WSDL version 443,2013-11-18 19:37:00,
2013-11-18 14:42:00,35.8,14.9,29.88,WNW,293,5.8,9.8,42,0.00,,,0.00,WSDL version 443,2013-11-18 19:42:00,
2013-11-18 14:47:00,35.8,15.2,29.88,WNW,293,5.4,9.8,43,0.00,,,0.00,WSDL version 443,2013-11-18 19:47:00,
2013-11-18 14:52:00,35.8,15.5,29.91,WNW,293,4.7,7.6,43,0.00,,,0.00,WSDL version 443,2013-11-18 19:52:00,
2013-11-18 14:57:00,35.6,15.4,29.91,NW,315,4.7,6.0,43,0.00,,,0.00,WSDL version 443,2013-11-18 19:57:00,
2013-11-18 15:02:00,35.6,15.0,29.91,WSW,248,6.3,14.8,43,0.00,,,0.00,WSDL version 443,2013-11-18 20:02:00,
2013-11-18 15:07:00,35.6,14.5,29.91,NNW,338,6.9,14.8,42,0.00,,,0.00,WSDL version 443,2013-11-18 20:07:00,
2013-11-18 15:12:00,35.5,14.2,29.91,WSW,248,6.5,9.8,41,0.00,,,0.00,WSDL version 443,2013-11-18 20:12:00,
2013-11-18 15:17:00,35.4,13.6,29.91,WNW,293,7.2,8.1,40,0.00,,,0.00,WSDL version 443,2013-11-18 20:17:00,
2013-11-18 15:22:00,35.4,13.5,29.91,NNW,338,8.5,9.2,40,0.00,,,0.00,WSDL version 443,2013-11-18 20:22:00,
2013-11-18 15:27:00,35.4,13.5,29.91,NW,304,10.3,10.3,40,0.00,,,0.00,WSDL version 443,2013-11-18 20:27:00,
2013-11-18 15:32:00,35.4,13.1,29.91,WSW,248,6.7,9.6,39,0.00,,,0.00,WSDL version 443,2013-11-18 20:32:00,
2013-11-18 15:37:00,35.4,12.6,29.94,WNW,293,8.9,11.0,39,0.00,,,0.00,WSDL version 443,2013-11-18 20:37:00,
2013-11-18 15:42:00,35.3,12.1,29.94,West,279,8.9,11.0,38,0.00,,,0.00,WSDL version 443,2013-11-18 20:42:00,
2013-11-18 15:52:00,35.2,11.6,29.94,WNW,298,7.4,11.0,37,0.00,,,0.00,WSDL version 443,2013-11-18 20:52:00,
2013-11-18 15:57:00,35.2,11.3,29.94,NW,315,7.4,10.5,37,0.00,,,0.00,WSDL version 443,2013-11-18 20:57:00,
2013-11-18 16:07:00,35.2,13.1,29.97,NW,315,7.2,10.5,40,0.00,,,0.00,WSDL version 443,2013-11-18 21:07:00,
2013-11-18 16:12:00,35.1,13.0,29.97,NW,315,7.2,10.3,40,0.00,,,0.00,WSDL version 443,2013-11-18 21:12:00,
2013-11-18 16:17:00,35.1,12.6,29.97,WSW,257,6.8,10.3,39,0.00,,,0.00,WSDL version 443,2013-11-18 21:17:00,
2013-11-18 16:22:00,35.1,13.1,29.97,NW,308,6.0,10.3,40,0.00,,,0.00,WSDL version 443,2013-11-18 21:22:00,
2013-11-18 16:27:00,35.1,12.2,29.97,West,259,6.3,10.7,38,0.00,,,0.00,WSDL version 443,2013-11-18 21:27:00,
2013-11-18 16:32:00,35.0,11.7,29.97,NNW,345,5.0,10.7,38,0.00,,,0.00,WSDL version 443,2013-11-18 21:32:00,
2013-11-18 16:37:00,34.9,11.0,30.00,NW,304,5.9,10.1,37,0.00,,,0.00,WSDL version 443,2013-11-18 21:37:00,
2013-11-18 16:42:00,34.9,11.4,30.00,WSW,255,5.6,6.3,37,0.00,,,0.00,WSDL version 443,2013-11-18 21:42:00,
2013-11-18 16:47:00,34.9,11.1,30.00,WNW,293,6.5,8.7,37,0.00,,,0.00,WSDL version 443,2013-11-18 21:47:00,
2013-11-18 16:52:00,34.9,11.2,30.03,West,278,5.5,8.7,37,0.00,,,0.00,WSDL version 443,2013-11-18 21:52:00,
2013-11-18 16:57:00,34.9,11.2,30.03,WSW,248,7.6,12.1,37,0.00,,,0.00,WSDL version 443,2013-11-18 21:57:00,
2013-11-18 17:02:00,34.9,11.3,30.03,WSW,248,7.6,12.1,37,0.00,,,0.00,WSDL version 443,2013-11-18 22:02:00,
2013-11-18 17:07:00,34.9,11.4,30.03,West,270,6.0,12.1,37,0.00,,,0.00,WSDL version 443,2013-11-18 22:07:00,
2013-11-18 17:12:00,34.7,11.1,30.03,West,270,6.0,12.1,37,0.00,,,0.00,WSDL version 443,2013-11-18 22:12:00,
2013-11-18 17:17:00,34.7,11.8,30.03,West,270,6.0,9.8,38,0.00,,,0.00,WSDL version 443,2013-11-18 22:17:00,
2013-11-18 17:22:00,34.7,11.5,30.00,NW,315,8.1,9.8,38,0.00,,,0.00,WSDL version 443,2013-11-18 22:22:00,
2013-11-18 17:27:00,34.7,12.2,30.00,NW,315,8.1,9.8,39,0.00,,,0.00,WSDL version 443,2013-11-18 22:27:00,
2013-11-18 17:32:00,34.6,12.3,30.00,NW,315,8.1,8.1,39,0.00,,,0.00,WSDL version 443,2013-11-18 22:32:00,
2013-11-18 17:37:00,34.6,11.7,30.03,NW,315,8.1,8.1,38,0.00,,,0.00,WSDL version 443,2013-11-18 22:37:00,
2013-11-18 17:42:00,34.7,11.7,30.03,WNW,293,8.1,8.1,38,0.00,,,0.00,WSDL version 443,2013-11-18 22:42:00,
2013-11-18 17:47:00,34.7,11.6,30.03,WNW,293,8.1,8.1,38,0.00,,,0.00,WSDL version 443,2013-11-18 22:47:00,
2013-11-18 17:52:00,34.7,11.5,30.03,WNW,293,8.1,8.1,38,0.00,,,0.00,WSDL version 443,2013-11-18 22:52:00,
2013-11-18 17:57:00,34.6,12.3,30.03,North,-999,-999.0,-999.0,39,0.00,,,0.00,WSDL version 443,2013-11-18 22:57:00,
2013-11-18 18:02:00,34.5,12.4,30.03,West,281,4.7,7.4,40,0.00,,,0.00,WSDL version 443,2013-11-18 23:02:00,
2013-11-18 18:07:00,34.5,12.5,30.03,West,270,4.7,5.4,40,0.00,,,0.00,WSDL version 443,2013-11-18 23:07:00,
2013-11-18 18:12:00,34.5,12.5,30.03,West,270,4.7,4.7,40,0.00,,,0.00,WSDL version 443,2013-11-18 23:12:00,
2013-11-18 18:17:00,34.5,12.5,30.03,West,270,4.7,4.7,40,0.00,,,0.00,WSDL version 443,2013-11-18 23:17:00,
2013-11-18 18:22:00,34.5,12.7,30.06,North,-999,-999.0,-999.0,40,0.00,,,0.00,WSDL version 443,2013-11-18 23:22:00,
2013-11-18 18:27:00,34.5,12.7,30.06,North,-999,-999.0,-999.0,40,0.00,,,0.00,WSDL version 443,2013-11-18 23:27:00,
2013-11-18 18:32:00,34.5,12.7,30.06,North,-999,-999.0,-999.0,40,0.00,,,0.00,WSDL version 443,2013-11-18 23:32:00,
2013-11-18 18:37:00,34.6,12.7,30.09,North,-999,-999.0,-999.0,40,0.00,,,0.00,WSDL version 443,2013-11-18 23:37:00,
2013-11-18 18:42:00,34.7,12.8,30.09,North,-999,-999.0,-999.0,40,0.00,,,0.00,WSDL version 443,2013-11-18 23:42:00,
2013-11-18 18:47:00,34.7,12.8,30.09,North,-999,-999.0,-999.0,40,0.00,,,0.00,WSDL version 443,2013-11-18 23:47:00,
2013-11-18 18:52:00,34.7,12.6,30.09,North,-999,-999.0,-999.0,40,0.00,,,0.00,WSDL version 443,2013-11-18 23:52:00,
2013-11-18 18:57:00,34.5,12.7,30.09,North,-999,-999.0,-999.0,40,0.00,,,0.00,WSDL version 443,2013-11-18 23:57:00,
2013-11-18 19:02:00,34.5,12.7,30.09,North,-999,-999.0,-999.0,40,0.00,,,0.00,WSDL version 443,2013-11-19 00:02:00,
2013-11-18 19:07:00,34.5,12.7,30.09,North,-999,-999.0,-999.0,40,0.00,,,0.00,WSDL version 443,2013-11-19 00:07:00,
2013-11-18 19:12:00,34.7,12.8,30.09,North,-999,-999.0,-999.0,40,0.00,,,0.00,WSDL version 443,2013-11-19 00:12:00,
2013-11-18 19:17:00,34.7,12.8,30.09,North,-999,-999.0,-999.0,40,0.00,,,0.00,WSDL version 443,2013-11-19 00:17:00,
2013-11-18 19:22:00,34.7,12.8,30.09,North,-999,-999.0,-999.0,40,0.00,,,0.00,WSDL version 443,2013-11-19 00:22:00,
2013-11-18 19:27:00,34.7,12.8,30.09,North,-999,-999.0,-999.0,40,0.00,,,0.00,WSDL version 443,2013-11-19 00:27:00,
2013-11-18 19:32:00,34.6,12.7,30.09,North,-999,-999.0,-999.0,40,0.00,,,0.00,WSDL version 443,2013-11-19 00:32:00,
2013-11-18 19:37:00,34.7,12.8,30.09,North,-999,-999.0,-999.0,40,0.00,,,0.00,WSDL version 443,2013-11-19 00:37:00,
2013-11-18 19:47:00,34.7,12.8,30.09,North,-999,-999.0,-999.0,40,0.00,,,0.00,WSDL version 443,2013-11-19 00:47:00,
2013-11-18 19:52:00,34.7,12.8,30.09,North,-999,-999.0,-999.0,40,0.00,,,0.00,WSDL version 443,2013-11-19 00:52:00,
2013-11-18 19:57:00,34.7,12.8,30.09,North,-999,-999.0,-999.0,40,0.00,,,0.00,WSDL version 443,2013-11-19 00:57:00,
2013-11-18 20:02:00,34.7,12.8,30.09,North,-999,-999.0,-999.0,40,0.00,,,0.00,WSDL version 443,2013-11-19 01:02:00,
2013-11-18 20:07:00,34.8,12.9,30.12,North,-999,-999.0,-999.0,40,0.00,,,0.00,WSDL version 443,2013-11-19 01:07:00,
2013-11-18 20:12:00,34.7,12.8,30.12,North,-999,-999.0,-999.0,40,0.00,,,0.00,WSDL version 443,2013-11-19 01:12:00,
2013-11-18 20:17:00,34.8,12.8,30.12,North,-999,-999.0,-999.0,40,0.00,,,0.00,WSDL version 443,2013-11-19 01:17:00,
2013-11-18 20:22:00,34.8,12.9,30.12,North,-999,-999.0,-999.0,40,0.00,,,0.00,WSDL version 443,2013-11-19 01:22:00,
2013-11-18 20:27:00,34.7,12.8,30.12,North,-999,-999.0,-999.0,40,0.00,,,0.00,WSDL version 443,2013-11-19 01:27:00,
2013-11-18 20:32:00,34.8,12.6,30.12,North,-999,-999.0,-999.0,40,0.00,,,0.00,WSDL version 443,2013-11-19 01:32:00,
2013-11-18 20:37:00,34.9,12.8,30.12,North,-999,-999.0,-999.0,40,0.00,,,0.00,WSDL version 443,2013-11-19 01:37:00,
2013-11-18 20:42:00,34.8,12.9,30.12,North,-999,-999.0,-999.0,40,0.00,,,0.00,WSDL version 443,2013-11-19 01:42:00,
2013-11-18 20:47:00,34.7,12.8,30.12,North,-999,-999.0,-999.0,40,0.00,,,0.00,WSDL version 443,2013-11-19 01:47:00,
2013-11-18 20:52:00,34.7,12.8,30.15,North,-999,-999.0,-999.0,40,0.00,,,0.00,WSDL version 443,2013-11-19 01:52:00,
2013-11-18 20:57:00,34.7,12.8,30.15,North,-999,-999.0,-999.0,40,0.00,,,0.00,WSDL version 443,2013-11-19 01:57:00,
2013-11-18 21:02:00,34.7,12.8,30.15,North,-999,-999.0,-999.0,40,0.00,,,0.00,WSDL version 443,2013-11-19 02:02:00,
2013-11-18 21:07:00,34.7,12.7,30.15,North,-999,-999.0,-999.0,40,0.00,,,0.00,WSDL version 443,2013-11-19 02:07:00,
2013-11-18 21:12:00,34.7,12.8,30.15,North,-999,-999.0,-999.0,40,0.00,,,0.00,WSDL version 443,2013-11-19 02:12:00,
2013-11-18 21:17:00,34.6,12.7,30.15,North,-999,-999.0,-999.0,40,0.00,,,0.00,WSDL version 443,2013-11-19 02:17:00,
2013-11-18 21:22:00,34.5,12.7,30.15,North,-999,-999.0,-999.0,40,0.00,,,0.00,WSDL version 443,2013-11-19 02:22:00,
2013-11-18 21:27:00,34.6,12.7,30.15,North,-999,-999.0,-999.0,40,0.00,,,0.00,WSDL version 443,2013-11-19 02:27:00,
2013-11-18 21:32:00,34.6,12.7,30.15,North,-999,-999.0,-999.0,40,0.00,,,0.00,WSDL version 443,2013-11-19 02:32:00,
2013-11-18 21:42:00,34.5,12.7,30.15,North,-999,-999.0,-999.0,40,0.00,,,0.00,WSDL version 443,2013-11-19 02:42:00,
2013-11-18 21:47:00,34.5,13.2,30.15,North,-999,-999.0,-999.0,41,0.00,,,0.00,WSDL version 443,2013-11-19 02:47:00,
2013-11-18 21:52:00,34.5,13.2,30.12,North,-999,-999.0,-999.0,41,0.00,,,0.00,WSDL version 443,2013-11-19 02:52:00,
2013-11-18 21:57:00,34.5,12.9,30.12,North,-999,-999.0,-999.0,40,0.00,,,0.00,WSDL version 443,2013-11-19 02:57:00,
2013-11-18 22:02:00,34.5,13.0,30.12,North,-999,-999.0,-999.0,41,0.00,,,0.00,WSDL version 443,2013-11-19 03:02:00,
2013-11-18 22:07:00,34.5,12.7,30.15,North,-999,-999.0,-999.0,40,0.00,,,0.00,WSDL version 443,2013-11-19 03:07:00,
2013-11-18 22:12:00,34.5,12.7,30.15,North,-999,-999.0,-999.0,40,0.00,,,0.00,WSDL version 443,2013-11-19 03:12:00,
2013-11-18 22:17:00,34.5,12.7,30.15,North,-999,-999.0,-999.0,40,0.00,,,0.00,WSDL version 443,2013-11-19 03:17:00,
2013-11-18 22:22:00,34.5,12.7,30.15,North,-999,-999.0,-999.0,40,0.00,,,0.00,WSDL version 443,2013-11-19 03:22:00,
2013-11-18 22:27:00,34.5,12.8,30.15,North,-999,-999.0,-999.0,40,0.00,,,0.00,WSDL version 443,2013-11-19 03:27:00,
2013-11-18 22:32:00,34.5,12.8,30.15,North,-999,-999.0,-999.0,40,0.00,,,0.00,WSDL version 443,2013-11-19 03:32:00,
2013-11-18 22:37:00,34.5,12.8,30.15,North,-999,-999.0,-999.0,40,0.00,,,0.00,WSDL version 443,2013-11-19 03:37:00,
2013-11-18 22:42:00,34.5,12.9,30.15,North,-999,-999.0,-999.0,40,0.00,,,0.00,WSDL version 443,2013-11-19 03:42:00,
2013-11-18 22:47:00,34.5,12.7,30.15,North,-999,-999.0,-999.0,40,0.00,,,0.00,WSDL version 443,2013-11-19 03:47:00,
2013-11-18 22:52:00,34.5,12.7,30.15,North,-999,-999.0,-999.0,40,0.00,,,0.00,WSDL version 443,2013-11-19 03:52:00,
2013-11-18 22:57:00,34.6,12.7,30.15,North,-999,-999.0,-999.0,40,0.00,,,0.00,WSDL version 443,2013-11-19 03:57:00,
2013-11-18 23:02:00,34.6,12.7,30.15,North,-999,-999.0,-999.0,40,0.00,,,0.00,WSDL version 443,2013-11-19 04:02:00,
2013-11-18 23:07:00,34.7,12.8,30.18,North,-999,-999.0,-999.0,40,0.00,,,0.00,WSDL version 443,2013-11-19 04:07:00,
2013-11-18 23:12:00,34.6,12.8,30.18,North,-999,-999.0,-999.0,40,0.00,,,0.00,WSDL version 443,2013-11-19 04:12:00,
2013-11-18 23:17:00,34.7,12.8,30.18,North,-999,-999.0,-999.0,40,0.00,,,0.00,WSDL version 443,2013-11-19 04:17:00,
2013-11-18 23:22:00,34.7,12.8,30.21,North,-999,-999.0,-999.0,40,0.00,,,0.00,WSDL version 443,2013-11-19 04:22:00,
2013-11-18 23:27:00,34.7,12.8,30.21,North,-999,-999.0,-999.0,40,0.00,,,0.00,WSDL version 443,2013-11-19 04:27:00,
2013-11-18 23:32:00,34.7,12.6,30.21,North,-999,-999.0,-999.0,40,0.00,,,0.00,WSDL version 443,2013-11-19 04:32:00,
2013-11-18 23:37:00,34.9,12.5,30.21,North,-999,-999.0,-999.0,39,0.00,,,0.00,WSDL version 443,2013-11-19 04:37:00,
2013-11-18 23:42:00,34.9,13.0,30.21,North,-999,-999.0,-999.0,40,0.00,,,0.00,WSDL version 443,2013-11-19 04:42:00,
2013-11-18 23:47:00,34.7,12.9,30.21,North,-999,-999.0,-999.0,40,0.00,,,0.00,WSDL version 443,2013-11-19 04:47:00,
2013-11-18 23:52:00,34.6,12.8,30.21,North,-999,-999.0,-999.0,40,0.00,,,0.00,WSDL version 443,2013-11-19 04:52:00,
2013-11-18 23:57:00,34.5,12.8,30.21,North,-999,-999.0,-999.0,40,0.00,,,0.00,WSDL version 443,2013-11-19 04:57:00,